Regional Weather Roundup
Issued by NWS

Home | Current Version | Previous Version | Text Only | Print | Product List | Glossary On
Versions: 1 2 3 4 5 6 7 8 9 10 11 12 13 14 15 16 17 18 19 20 21 22 23 24 25 26 27 28 29 30 31 32 33 34 35 36 37 38 39 40 41 42 43 44 45 46 47 48 49 50
244
ASHW40 PHFO 081512
RWRHI

WEATHER ROUNDUP FOR HAWAII
NATIONAL WEATHER SERVICE HONOLULU HI
500 AM HST THU DEC 08 2016

THIS IS AN AUTOMATED REPORT THAT HAS NOT BEEN QUALITY CONTROLLED.

NOTE..."FAIR" INDICATES FEW OR NO CLOUDS BELOW 12,000 FEET WITH NO
SIGNIFICANT WEATHER AND/OR OBSTRUCTIONS TO VISIBILITY.

* - THESE SITES REPORT LIMITED FIELDS

HIZ001>004-081600-
KAUAI-NIIHAU-

CITY           SKY/WX    TMP DP  RH WIND       PRES   REMARKS
LIHUE APT      CLOUDY    72  67  84 CALM      29.90F
PORT ALLEN*      N/A     73 N/A N/A NE5         N/A
POIPU*           N/A     72 N/A N/A NE2         N/A
PRINCEVILLE*     N/A     68 N/A N/A S2          N/A
KOKOLE POINT*  NOT AVBL
MOLOAA DAIRY*    N/A     70  66  88 CALM        N/A
WAIMEA HTS*    NOT AVBL
PUU OPAE*      NOT AVBL
PUU LUA*       NOT AVBL
MAKAHA RIDGE*  NOT AVBL
$$

HIZ005>011-081600-
OAHU-

CITY           SKY/WX    TMP DP  RH WIND       PRES   REMARKS
HONOLULU       CLOUDY    72  68  87 CALM      29.89S
KALAELOA       CLOUDY    73  68  84 NE5       29.90F
KANEOHE MCB    NOT AVBL
WHEELER FIELD  FAIR      69  69  99 CALM      29.90
BELLOWS*       NOT AVBL
KAHUKU*        NOT AVBL
WHEELER*       NOT AVBL
WAIANAE HARBOR NOT AVBL
DILLINGHAM*      N/A     70  66  88 MISG        N/A
KAHUKU TRN*      N/A     79  75  89 N1          N/A
KAWAILOA*        N/A     70  66  88 E3          N/A
KII*             N/A     73  70  88 S2          N/A
MAKUA RANGE*     N/A     70  64  83 NW3         N/A
OAHU FOREST NW NOT AVBL
SCHOFIELD BRK*   N/A     66  64  94 MISG        N/A
SCHOFIELD S*   NOT AVBL
WAIANAE VLY*   NOT AVBL
KUAOKALA*      NOT AVBL
HONOULIUULI*   NOT AVBL
MOKUOLOE IS*   NOT AVBL
PALEHUA*       NOT AVBL
WAIAWA PHB*    NOT AVBL
$$

HIZ012>013-081600-
MOLOKAI-

CITY           SKY/WX    TMP DP  RH WIND       PRES   REMARKS
MOLOKAI AIRPT    N/A     74  70  87 N5        29.92R
KALAUPAPA      NOT AVBL
MAKAPULAPAI*   NOT AVBL
MOLOKAI 1*     NOT AVBL
PUU ALII*      NOT AVBL
$$

HIZ016-081600-
KAHOOLAWE-

CITY           SKY/WX    TMP DP  RH WIND       PRES   REMARKS
KAHOOLAWE*     NOT AVBL
HAKIOAWA*      NOT AVBL
HONOKANAIA*      N/A     75  72  89 SE8G14    29.84R
KANELOA*         N/A     72  68  88 NE3G10    29.97R
KEALIALALO*    NOT AVBL
LUA MAKIKA*    NOT AVBL
$$

HIZ014>015-081600-
LANAI-

CITY           SKY/WX    TMP DP  RH WIND       PRES   REMARKS
LANAI CITY     HVY RAIN  68  66  94 E12       29.96S FOG
LANAI 1*       NOT AVBL
$$

HIZ017>028-081600-
MAUI-

CITY           SKY/WX    TMP DP  RH WIND       PRES   REMARKS
KAHULUI        CLOUDY    75  70  84 E5        29.90R
KAPALUA-W MAUI NOT AVBL
HANA AIRPORT   MOCLDY    72  68  88 S1        29.94R
HANA*            N/A     73 N/A N/A S2          N/A
HALEAKALA SUMM   N/A     45  45 100 N3          N/A
MAALAEA BAY*   NOT AVBL
HALEAKALA*     NOT AVBL
KAUPO GAP*     NOT AVBL
KULA 1*          N/A     53  51  94 E3          N/A
$$

HIZ023>026-081600-
BIG ISLAND OF HAWAII COAST AND LOWER SLOPES-

CITY           SKY/WX    TMP DP  RH WIND       PRES   REMARKS
KAILUA KONA    LGT RAIN  77  70  79 CALM      29.88R
HILO           CLOUDY    72  66  81 SW6       29.91R
HONOKAA*         N/A     68 N/A N/A VRB1        N/A
KAWAIHAE MWT*    N/A     75 N/A N/A E5          N/A
KAWAIHAE*      NOT AVBL
SOUTH POINT*     N/A     70 N/A N/A N10G16      N/A
UPOLU AIRPORT* NOT AVBL
KAMUELA*       CLOUDY    66  64  94 SW7       30.01R
HAKALAU*         N/A     54  51  89 SW3         N/A
KALOKO-HONOKO* NOT AVBL
PALI 2*          N/A    N/A N/A N/A SW3         N/A
KEALAKOMO*       N/A     73  68  83 N3          N/A
KAUPULEHU*     NOT AVBL
KAPAPALA*      NOT AVBL
LOWER KAHUKU*  NOT AVBL
PUHE CS*       NOT AVBL
PUHO CS*       NOT AVBL
PTA KEAMUKU*     N/A     64  61  88 CALM        N/A
WAIKOLOA*      NOT AVBL
$$

HIZ027>028-081600-
BIG ISLAND OF HAWAII INTERIOR AND SUMMMITS-

CITY           SKY/WX    TMP DP  RH WIND       PRES   REMARKS
BRADSHAW FIELD MOCLDY    58  51  78 SE3       30.22S
MK VISITOR CEN   N/A     48  45  87 SE7         N/A
MAUNA KEA*       N/A     34  34 100 SE5         N/A  WCI  30
MAUNA LOA*     NOT AVBL
MAUNA LOA 1*   NOT AVBL
PTA KIPUKA*      N/A     70  70 100 NW2         N/A
PTA RANGE 17*    N/A     66  59  77 SW5G12      N/A
PTA WEST*        N/A     61  57  88 E2          N/A
NENE CABIN*    NOT AVBL
AHUMOA*        NOT AVBL
PTA PORTABLE*  NOT AVBL
PUU MALI*        N/A     57  50  77 S3          N/A
$$

HIC003-081600-
NORTHWEST ISLANDS-

CITY           SKY/WX    TMP DP  RH WIND       PRES   REMARKS
MIDWAY ISLAND  MOCLDY    68  57  68 N6        30.00S
MIDWAY NOS*    NOT AVBL
FRENCH FRIGATE NOT AVBL
$$

PHZ110>124-180-081600-
BUOY REPORTS

STATION/POSITION TIME  TEMP    WIND        PRES    WAVE   SWELL
                       AIR SEA DIR/SP/G            HT/PER HT/DIR
                 (UTC) (F)     (DEG/KT/KT) (MB)    (FT/S) (FT/D)
BUOY 51001       1450   76 77  210/ 12/ 14 1011.4R   6/13   5/340
BUOY 51101       1450   77 78  220/ 10/ 12 1012.0S   6/13   5/310
BUOY 51100       NOT AVBL
BUOY 51002       1450   78 78  100/ 12/ 14 1011.1R   6/15   5/310
BUOY 51003       1450   77 79  140/ 14/ 17 1011.0R   6/14   5/320
BUOY 51004       1450   76 79  110/ 14/ 16 1012.5R   7/16   5/320
BARBERS PT BUOY  NOT AVBL
WAIMEA BAY BUOY  NOT AVBL
KAILUA BAY BUOY  1434      78                N/A     5/11   3/ 10
LANAI BUOY       1445      78                N/A     2/15   2/290
BARBERS PT 2     1439      78                N/A     4/14   3/310
PAUWELA MAUI     1439      78                N/A     6/15   5/330
HILO             1442      78                N/A     6/15   3/350
KANEOHE BAY BUOY 1436      78                N/A     4/13   3/ 10
HANALEI KAUAI    1452      77                N/A     5/14   3/310
KAHULUI HARBOR   1448          180/  3/  3 1012.3R
HONOLULU HARBOR  1448           CALM  /  1 1012.8F
KILO NALU        NOT AVBL
HILO HARBOR      1448          200/  4/  5 1012.4R
MOKUOLOE         1436   73      CALM  /  1   N/A
NAWILIWILI       1448      78  240/  3/  4 1012.4F
WHOTS BUOY       NOT AVBL
BUOY 51028       NOT AVBL
$$

......................KEY........................................
  SKY/WX - SKY CONDITIONS/PRESENT WEATHER
  TMP    - TEMPERATURE IN FAHRENHEIT
  DWPT   - DEWPOINT IN FAHRENHEIT
  RH     - RELATIVE HUMIDITY IN PERCENT
  WIND   - DIRECTION AND SPEED /MPH FOR ISLANDS...KTS FOR BUOYS/
  PRES   - MEAN SEA LEVEL PRESSURE IN INCHES OF HG
  VSB    - VISIBILITY IN MILES
  HX     - HEAT INDEX
  WCI    - WIND CHILL INDEX
  VRB    - VARIABLE WIND DIRECTION
  N/A    - NOT AVAILABLE




USA.gov is the U.S. government's official web portal to all federal, state and local government web resources and services.